Location: Fort Worth, Tx
(32.7431°N, 97.3695°W)
Time: 00:14:34
(UTC-04:00)

X-37B - Visible Passes

Search period start: 16 April 2024 00:00
Search period end: 26 April 2024 00:00
Orbit: 277 x 277 km, 45.0° (Epoch: 01 November)

Date Brightness Start Highest point End Pass type
(mag) Time Alt. Az. Time Alt. Az. Time Alt. Az.
17 Apr 2.9 07:24:36 10° NNW 07:26:07 15° NNE 07:27:39 10° ENE visible
18 Apr 2.2 07:24:50 10° NNW 07:26:56 24° NNE 07:29:01 10° E visible
19 Apr 0.8 07:25:17 10° NW 07:27:41 50° NNE 07:30:04 10° ESE visible
20 Apr 3.4 05:54:18 13° NNE 05:54:18 13° NNE 05:55:12 10° NE visible
20 Apr -0.1 07:25:56 10° WNW 07:28:21 62° SW 07:30:46 10° SE visible
21 Apr 3.2 05:55:47 16° ENE 05:55:47 16° ENE 05:56:43 10° E visible
21 Apr 1.2 07:26:53 10° W 07:28:58 24° SW 07:31:01 10° SSE visible
22 Apr 3.2 05:57:38 12° E 05:57:38 12° E 05:57:52 10° ESE visible
23 Apr 1.9 22:01:44 10° S 22:02:47 16° SSE 22:02:47 16° SSE visible
24 Apr 0.2 22:01:47 10° SW 22:04:07 44° SE 22:05:11 25° E visible
25 Apr 0.1 22:02:22 10° WSW 22:04:47 69° NNW 22:07:09 10° NE visible
